Location: Devargunta
(16.7631°N, 80.9077°E)
Time: 11:15:31
(UTC+00:00)

Cosmos 540 Rocket - Pass Details

Date: 30 November 2021
Orbit: 739 x 754 km, 74.1° (Epoch: 16 January)

Event Time Altitude Azimuth Distance (km) Brightness Sun altitude
Exits shadow 22:19:21 - 36° (NE) 2,372 6.2 -34.8°
Reaches altitude 10° 22:19:55 10° 41° (NE) 2,261 6.2 -34.7°
Maximum altitude 22:22:29 14° 71° (ENE) 2,008 6.2 -34.1°
Drops below altitude 10° 22:25:03 10° 102° (ESE) 2,264 6.8 -33.5°
Sets 22:28:36 0° 127° (SE) 3,189 7.6 -32.7°
